星链-36445(STARLINK-36445)

导读

STARLINK-36445是美国太空探索技术公司(SpaceX)星链(Starlink)星座中的一颗低轨互联网卫星,于2026年1月4日由可重复使用的猎鹰9号火箭发射升空,目前已正常入轨运行。 作为SpaceX 2026年首批星链任务的组网卫星之一,它将进一步扩展星链星座规模,为全球用户提供高带宽的卫星互联网接入服务,同时也助力星链在2027年完成1.2万颗卫星的组网计划。

基本信息
目录编号:
67313
目录名称:
STARLINK-36445
国际标识:
2026-002J
轨道中心:
EARTH
卫星名称:
星链-36445
卫星全名:
星链-36445(STARLINK-36445)
卫星状态:
在轨 (已飞行243 天)
发射日期:
2026-01-04 UTC
国别 :
美国 (US)
星等 :
--
轨道信息
数据来源 国际轨道数据
星历时间: 2026-09-04T03:02:23+0800
14小时前
查看轨道信息
半长轴: 6861.202km
偏心率: 0.0001809
轨道倾角: 43.004°
近地点辐角 276.342°
升交点赤经 39.776°
平近点角 83.722°
近地点: 481.823km
远地点: 484.307km
周期: 94.267分钟
每日圈数: 15.27575
详细信息
固有亮度:
5
最大亮度:
2.5
卫星平台:
Starlink V1.0
覆盖范围:
全球
运营商:
太空探索技术公司
运营商所在国:
美国
制造商(研发单位):
太空探索技术公司
制造商所在国:
美国
使用方式:
暂无
卫星简介
Starlink 计划是 SpaceX 推出的全球卫星互联网项目,通过发射低轨道卫星,为全球尤其是偏远地区提供高速、低延迟的互联网服务。自 2019 年起,Starlink 已部署数千颗卫星,旨在缩小全球数字鸿沟,推动互联网普及。该项目还为军事、航空等行业提供通信支持,带来广泛经济效益。
2D轨道图
3D轨道图
轨道高度分析图
轨道倾角分析图
轨道综合分析图
查看轨道综合分析图
交会数据列表
事件ID 空间交会对象 最接近时刻(TCA) 交会距离 交会风险概率(CRP) 交会风险指数(CRI) 操作
CDM_260904-182706-340106-731321
2026-09-04T
18:27:43+0000
0.634 km
远距离
8.664097E-5 中风险 0.74
CDM_260904-002406-340106-731321
2026-09-04T
00:24:59+0000
1.189 km
极远距离
1.112693E-5 中风险 0.56
CDM_260904-134606-680406-731321
2026-09-04T
13:46:28+0000
1.239 km
极远距离
9.77465E-6 低风险 0.55
CDM_260904-055305-853006-731321
2026-09-04T
05:53:58+0000
1.298 km
极远距离
8.156269E-6 低风险 0.53
CDM_260904-152006-680406-731321
2026-09-04T
15:20:37+0000
1.334 km
极远距离
7.604261E-6 低风险 0.53
CDM_260905-055906-649406-731321
2026-09-05T
05:59:24+0000
1.028 km
极远距离
6.938789E-6 低风险 0.52
CDM_260903-180705-853006-731322
2026-09-03T
18:07:49+0000
1.432 km
极远距离
5.865224E-6 低风险 0.5
CDM_260904-112605-486506-731322
2026-09-04T
11:26:29+0000
1.597 km
极远距离
4.264367E-6 低风险 0.48
CDM_260904-165306-340106-731321
2026-09-04T
16:53:34+0000
1.685 km
极远距离
3.538462E-6 低风险 0.46
CDM_260904-015906-340106-731321
2026-09-04T
01:59:08+0000
1.727 km
极远距离
3.291382E-6 低风险 0.45